Preview of NWS' New Version of Forecast
This preview is not operational and should not be used for support decisions.

Regional Weather Roundup (RWR)

Issued by National Weather Service (NWS)

                            
000
ASUS45 KBOI 201910
RWRID 

IDAHO REGIONAL WEATHER ROUNDUP
NATIONAL WEATHER SERVICE BOISE ID
100 PM MDT SAT APR 20 2019

NOTE: "FAIR" INDICATES FEW OR NO CLOUDS BELOW 12000 FEET
WITH NO SIGNIFICANT WEATHER AND/OR OBSTRUCTIONS TO VISIBILITY

IDZ012-014-202000-
SOUTHWEST IDAHO

  
CITY           SKY/WX    TMP DP  RH WIND       PRES   REMARKS
BOISE          PTSUNNY   66  47  50 W15       29.74F                  
CALDWELL       PTSUNNY   60  50  69 W16       29.77F                  
MOUNTAIN HOME  CLOUDY    67  49  52 CALM      29.74F                  
$$

IDZ016-017-202000-
SOUTHCENTRAL IDAHO

  
CITY           SKY/WX    TMP DP  RH WIND       PRES   REMARKS
BURLEY         PTSUNNY   67  39  35 W14       29.77F                  
JEROME         CLOUDY    63  46  54 SW12      29.79F                  
TWIN FALLS     CLOUDY    62  43  49 W8        29.78F                  
$$

IDZ019>023-202000-
SOUTHEAST IDAHO

  
CITY           SKY/WX    TMP DP  RH WIND       PRES   REMARKS
IDAHO FALLS    PTSUNNY   66  39  37 SW20      29.78F                  
POCATELLO      PTSUNNY   66  40  38 W13       29.80F                  
REXBURG        PTSUNNY   69  37  30 SW18G25   29.77F                  
$$

IDZ006-010-011-018-031-032-202000-
CENTRAL IDAHO MOUNTAINS

  
CITY           SKY/WX    TMP DP  RH WIND       PRES   REMARKS
MCCALL         FOG       43  42  97 SW3       29.80S VSB 1/4          
HAILEY         MOSUNNY   63  39  42 S7        29.81F                  
STANLEY          N/A     57  32  38 VRB6      29.81F                  
SALMON         PTSUNNY   62  42  47 VRB6      29.71F                  
CHALLIS        MOSUNNY   69  42  37 VRB3      29.70F                  
$$

IDZ002-004-006-007-026-202000-
NORTHERN IDAHO

  
CITY           SKY/WX    TMP DP  RH WIND       PRES   REMARKS
LEWISTON       CLOUDY    56  45  66 NW10      29.86S                  
LOWELL           N/A     53  52  96 CALM      29.84S                  
COEUR D'ALENE  RAIN      51  47  86 NW12      29.86S                  
MULLAN PASS    LGT RAIN  39  37  92 VRB5      29.83S VSB 1/4          
$$